This is the latest recevied weather packets stored in our database for station/object KO4WIL-13. If no packets are shown the sender has not sent any weather packets the latest 10 day(s).
| Time | Temp. | Humidity | Pressure | Rain* | Wind** | Luminosity | Snow |
|---|---|---|---|---|---|---|---|
| 1777563199 | 14.44° C | 63% | 966.6 hPa | 0 mm | - | - | - |
| 1777562897 | 14.44° C | 62% | 966.7 hPa | 0 mm | - | - | - |
| 1777562595 | 14.44° C | 63% | 966.8 hPa | 0 mm | - | - | - |
| 1777562293 | 15° C | 64% | 966.8 hPa | 0 mm | - | - | - |
| 1777561991 | 15° C | 62% | 966.5 hPa | 0 mm | - | - | - |
| 1777561689 | 15° C | 63% | 966.5 hPa | 0 mm | - | - | - |
| 1777561387 | 14.44° C | 64% | 966.5 hPa | 0 mm | - | - | - |
| 1777561085 | 14.44° C | 65% | 966.5 hPa | 0 mm | - | - | - |
| 1777560782 | 14.44° C | 66% | 966.4 hPa | 0 mm | - | - | - |
| 1777560481 | 14.44° C | 64% | 966.3 hPa | 0 mm | - | - | - |
| 1777560177 | 14.44° C | 66% | 966.3 hPa | 0 mm | - | - | - |
| 1777559876 | 14.44° C | 66% | 966.4 hPa | 0 mm | - | - | - |
| 1777559574 | 14.44° C | 68% | 966.4 hPa | 0 mm | - | - | - |
| 1777559272 | 13.89° C | 69% | 966.4 hPa | 0 mm | - | - | - |
| 1777558969 | 13.89° C | 68% | 966.4 hPa | 0 mm | - | - | - |
| 1777558668 | 13.33° C | 68% | 966.4 hPa | 0 mm | - | - | - |
| 1777558366 | 13.33° C | 67% | 966.4 hPa | 0 mm | - | - | - |
| 1777558064 | 13.33° C | 70% | 966.4 hPa | 0 mm | - | - | - |
| 1777557762 | 13.89° C | 70% | 966.3 hPa | 0 mm | - | - | - |
| 1777557460 | 13.89° C | 71% | 966.3 hPa | 0 mm | - | - | - |
| 1777557157 | 13.89° C | 72% | 966.2 hPa | 0 mm | - | - | - |
| 1777556855 | 13.89° C | 73% | 966.1 hPa | 0 mm | - | - | - |
| 1777556554 | 13.33° C | 73% | 966.1 hPa | 0 mm | - | - | - |
| 1777556251 | 13.33° C | 74% | 966.1 hPa | 0 mm | - | - | - |
| 1777555949 | 12.78° C | 74% | 966 hPa | 0 mm | - | - | - |
* Rain latest hour (hover to see other rain measurements)
** Current wind speed in m/s (hover to see current wind gust speed)